Location: Anmer
(52.8333°N, 0.5833°E)
Time: 21:16:55
(UTC+00:00)

Okean 1 - Pass Details

Date: 15 May 2026
Orbit: 458 x 474 km, 82.5° (Epoch: 10 June)

Event Time Altitude Azimuth Distance (km) Brightness Sun altitude
Exits shadow 21:26:34 18° 154° (SSE) 1,240 4.5 -11.4°
Maximum altitude 21:28:51 38° 93° (E) 742 3.7 -11.6°
Drops below altitude 10° 21:32:13 10° 25° (NNE) 1,656 6.2 -11.8°
Sets 21:34:24 0° 17° (NNE) 2,542 7.3 -12.0°
